Simultaneous Nadir Overpasses (SNOs) Predictions

Prediction of SNOs between METOP-B and NPP Satellite Orbit:

Table of predicted SNOs for the next 14.0 days since TLE Epoch: 8/2/2025
Index Date (METOP-B) Time (METOP-B) Lat,Lon (METOP-B) SZA (METOP-B ) Date (NPP) Time (NPP) Lat,Lon (NPP) SZA (NPP ) Distance(km) Time Diff (sec)
1 08/02/2025 04:40:54 74.42, 98.18 57.10 08/02/2025 04:41:45 74.41, 98.10 57.08 3.23 51
2 08/02/2025 05:31:36 -74.40, -94.56 122.91 08/02/2025 05:32:28 -74.38, -94.53 122.94 1.86 52
3 08/02/2025 06:22:16 74.41, 72.80 57.11 08/02/2025 06:23:15 74.41, 72.71 57.10 2.73 59
4 08/02/2025 07:12:58 -74.38,-119.94 122.91 08/02/2025 07:13:58 -74.39,-119.91 122.92 0.94 60
5 08/02/2025 08:03:38 74.39, 47.42 57.12 08/02/2025 08:04:44 74.37, 47.45 57.07 3.11 66
6 08/02/2025 08:54:20 -74.37,-145.32 122.90 08/02/2025 08:55:28 -74.39,-145.30 122.90 2.88 68
7 08/02/2025 09:45:01 74.33, 21.92 57.08 08/02/2025 09:46:14 74.37, 22.06 57.09 6.42 73
8 08/02/2025 10:35:43 -74.30,-170.82 122.93 08/02/2025 10:36:57 -74.35,-170.56 122.93 9.27 74
9 08/02/2025 11:26:28 74.07, -4.07 56.89 08/02/2025 11:27:38 74.08, -2.58 56.78 45.71 70
10 08/02/2025 12:17:11 -73.99, 163.08 123.16 08/02/2025 12:18:20 -74.01, 164.92 123.29 56.45 69
11 08/02/2025 13:07:57 73.70, -30.27 56.63 08/02/2025 13:09:02 73.79, -27.24 56.47 95.04 65



Historial Predications of SNOs between METOP-B and NPP
